TimeHST,TemperatureF,Dew PointF,Humidity,Sea Level PressureIn,VisibilityMPH,Wind Direction,Wind SpeedMPH,Gust SpeedMPH,PrecipitationIn,Events,Conditions,WindDirDegrees,DateUTC
12:56 AM,68.9,63.9,84,29.98,10.0,ENE,8.1,-,N/A,,Partly Cloudy,60,2012-11-21 10:56:00
1:56 AM,69.8,64.4,83,30.05,10.0,Calm,Calm,-,N/A,,Mostly Cloudy,0,2012-11-21 11:56:00
2:56 AM,66.9,63.0,87,29.97,10.0,NE,4.6,-,N/A,,Clear,40,2012-11-21 12:56:00
3:56 AM,66.9,63.9,90,29.96,10.0,East,4.6,-,N/A,,Clear,100,2012-11-21 13:56:00
4:56 AM,64.9,63.0,93,29.96,10.0,ENE,5.8,-,N/A,,Clear,60,2012-11-21 14:56:00
5:56 AM,66.9,64.9,93,29.97,10.0,East,5.8,-,N/A,,Clear,80,2012-11-21 15:56:00
6:56 AM,64.9,63.9,96,29.99,10.0,ENE,5.8,-,N/A,,Clear,60,2012-11-21 16:56:00
7:56 AM,70.0,66.9,90,30.00,10.0,Calm,Calm,-,N/A,,Clear,0,2012-11-21 17:56:00
8:56 AM,77.0,64.9,66,30.01,10.0,Variable,3.5,-,N/A,,Clear,0,2012-11-21 18:56:00
9:56 AM,79.9,64.9,60,30.01,10.0,WNW,6.9,-,N/A,,Scattered Clouds,300,2012-11-21 19:56:00
10:56 AM,79.9,64.9,60,29.99,10.0,West,9.2,-,N/A,,Clear,280,2012-11-21 20:56:00
11:56 AM,81.9,65.8,58,29.95,10.0,West,9.2,-,N/A,,Scattered Clouds,280,2012-11-21 21:56:00
12:56 PM,81.0,64.9,58,29.93,10.0,Variable,6.9,-,N/A,,Scattered Clouds,0,2012-11-21 22:56:00
1:29 PM,78.8,64.4,61,29.98,10.0,Calm,Calm,-,N/A,,Mostly Cloudy,0,2012-11-21 23:29:00
1:56 PM,80.6,64.4,58,29.97,10.0,Variable,4.6,-,N/A,,Mostly Cloudy,0,2012-11-21 23:56:00
2:56 PM,77.9,64.9,64,29.91,10.0,SSW,5.8,-,N/A,,Overcast,210,2012-11-22 00:56:00
3:56 PM,74.8,63.9,69,29.92,10.0,Variable,3.5,-,N/A,,Mostly Cloudy,0,2012-11-22 01:56:00
4:05 PM,75.2,64.4,69,29.97,10.0,Calm,Calm,-,N/A,,Partly Cloudy,0,2012-11-22 02:05:00
4:45 PM,73.4,64.4,73,29.98,10.0,Calm,Calm,-,N/A,,Mostly Cloudy,0,2012-11-22 02:45:00
4:56 PM,73.4,64.4,73,29.98,10.0,SSW,3.5,-,N/A,,Mostly Cloudy,200,2012-11-22 02:56:00
5:25 PM,73.4,64.4,73,29.99,10.0,South,4.6,-,N/A,,Scattered Clouds,170,2012-11-22 03:25:00
5:35 PM,73.4,64.4,73,29.99,10.0,SSE,4.6,-,N/A,,Mostly Cloudy,160,2012-11-22 03:35:00
5:56 PM,72.9,63.9,73,29.95,10.0,SSE,4.6,-,N/A,,Scattered Clouds,150,2012-11-22 03:56:00
6:56 PM,70.9,63.9,78,29.98,10.0,SE,4.6,-,N/A,,Clear,130,2012-11-22 04:56:00
7:56 PM,70.0,63.0,78,29.99,10.0,East,3.5,-,N/A,,Clear,80,2012-11-22 05:56:00
8:56 PM,68.9,63.9,84,29.99,10.0,ESE,3.5,-,N/A,,Clear,110,2012-11-22 06:56:00
9:56 PM,68.9,65.8,90,29.99,10.0,East,4.6,-,N/A,,Clear,100,2012-11-22 07:56:00
10:56 PM,66.9,64.9,93,29.99,10.0,East,5.8,-,N/A,,Clear,100,2012-11-22 08:56:00
11:56 PM,66.9,63.9,90,29.96,10.0,ENE,8.1,-,N/A,,Clear,70,2012-11-22 09:56:00